This is the latest recevied weather packets stored in our database for station/object N4NVD-13. If no packets are shown the sender has not sent any weather packets the latest 10 day(s).
| Time | Temp. | Humidity | Pressure | Rain* | Wind** | Luminosity | Snow |
|---|---|---|---|---|---|---|---|
| 1777643930 | 15° C | 99% | 1012.9 hPa | 0 mm | - | 32 W/m² | - |
| 1777643628 | 15° C | 99% | 1011.7 hPa | 0 mm | - | 71 W/m² | - |
| 1777643324 | 15° C | 99% | 1011.7 hPa | 0 mm | - | 72 W/m² | - |
| 1777643021 | 15° C | 99% | 1011 hPa | 0 mm | - | 53 W/m² | - |
| 1777642717 | 15° C | 99% | 1011.2 hPa | 0 mm | - | 29 W/m² | - |
| 1777642415 | 15° C | 99% | 1012 hPa | 0 mm | - | 13 W/m² | - |
| 1777642110 | 15° C | 99% | 1013.1 hPa | 0 mm | - | 7 W/m² | - |
| 1777641807 | 15° C | 99% | 1013.3 hPa | 0 mm | - | 5 W/m² | - |
| 1777641502 | 15° C | 99% | 1013.2 hPa | 0 mm | - | 1 W/m² | - |
| 1777641197 | 15° C | 99% | 1013 hPa | 0 mm | - | 2 W/m² | - |
| 1777640894 | 15° C | 99% | 1012.7 hPa | 0 mm | - | 0 W/m² | - |
| 1777640592 | 15° C | 99% | 1012.4 hPa | 0 mm | - | 0 W/m² | - |
| 1777640288 | 15° C | 99% | 1012.6 hPa | 0 mm | - | 0 W/m² | - |
| 1777639984 | 15° C | 99% | 1012.4 hPa | 0 mm | - | 0 W/m² | - |
| 1777639680 | 15° C | 99% | 1012.1 hPa | 0 mm | - | 1 W/m² | - |
| 1777639379 | 15° C | 99% | 1012 hPa | 0 mm | - | 1 W/m² | - |
| 1777639073 | 15° C | 99% | 1011.7 hPa | 0 mm | - | 1 W/m² | - |
| 1777638771 | 15° C | 99% | 1011.4 hPa | 0 mm | - | 0 W/m² | - |
| 1777638466 | 15° C | 99% | 1011.4 hPa | 0 mm | - | 0 W/m² | - |
| 1777638163 | 15° C | 99% | 1011.8 hPa | 0 mm | - | 0 W/m² | - |
| 1777637858 | 15° C | 99% | 1012.5 hPa | 0 mm | - | 0 W/m² | - |
| 1777637556 | 15° C | 99% | 1012.9 hPa | 0 mm | - | 0 W/m² | - |
| 1777637253 | 15° C | 99% | 1013 hPa | 0 mm | - | 0 W/m² | - |
| 1777636950 | 15° C | 99% | 1012.5 hPa | 0 mm | - | 0 W/m² | - |
| 1777636646 | 15° C | 99% | 1012.4 hPa | 0 mm | - | 0 W/m² | - |
* Rain latest hour (hover to see other rain measurements)
** Current wind speed in m/s (hover to see current wind gust speed)